TimeCDT,TemperatureF,Dew PointF,Humidity,Sea Level PressureIn,VisibilityMPH,Wind Direction,Wind SpeedMPH,Gust SpeedMPH,PrecipitationIn,Events,Conditions,WindDirDegrees,DateUTC
12:53 AM,23.0,15.1,72,30.35,10.0,South,5.8,-,N/A,,Clear,190,2013-03-14 05:53:00
1:53 AM,21.9,14.0,72,30.34,10.0,South,5.8,-,N/A,,Clear,180,2013-03-14 06:53:00
2:53 AM,21.0,15.1,78,30.32,10.0,SSE,5.8,-,N/A,,Scattered Clouds,150,2013-03-14 07:53:00
3:53 AM,21.9,15.1,75,30.31,10.0,SSE,3.5,-,N/A,,Overcast,150,2013-03-14 08:53:00
4:53 AM,21.9,16.0,78,30.30,10.0,SSE,5.8,-,N/A,,Overcast,160,2013-03-14 09:53:00
5:53 AM,21.9,16.0,78,30.30,10.0,South,5.8,-,N/A,,Overcast,180,2013-03-14 10:53:00
6:53 AM,23.0,17.1,78,30.28,10.0,SSE,8.1,-,N/A,,Overcast,150,2013-03-14 11:53:00
7:14 AM,23.0,17.6,80,30.22,9.0,ESE,5.8,-,N/A,,Overcast,120,2013-03-14 12:14:00
7:28 AM,21.2,17.6,86,30.22,1.8,ESE,4.6,-,0.00,Snow,Light Snow,120,2013-03-14 12:28:00
7:41 AM,21.2,17.6,86,30.22,3.0,SE,5.8,-,0.00,Snow,Light Snow,130,2013-03-14 12:41:00
7:53 AM,21.9,17.1,82,30.26,4.0,SE,5.8,-,0.00,Snow,Light Snow,130,2013-03-14 12:53:00
8:02 AM,21.2,17.6,86,30.21,1.5,ESE,5.8,-,0.00,Snow,Light Snow,120,2013-03-14 13:02:00
8:06 AM,21.2,17.6,86,30.21,0.8,SE,4.6,-,0.00,Snow,Light Snow,130,2013-03-14 13:06:00
8:30 AM,21.2,19.4,93,30.22,1.2,SSE,8.1,-,0.01,Snow,Light Snow,160,2013-03-14 13:30:00
8:44 AM,21.2,19.4,93,30.22,0.8,SSE,5.8,-,0.02,Snow,Light Snow,150,2013-03-14 13:44:00
8:53 AM,23.0,19.0,85,30.27,1.2,SSE,8.1,-,0.02,Snow,Light Snow,150,2013-03-14 13:53:00
9:05 AM,23.0,19.4,86,30.22,2.5,SSE,8.1,-,0.00,Snow,Light Snow,160,2013-03-14 14:05:00
9:15 AM,23.0,19.4,86,30.21,1.8,SSE,10.4,-,0.00,Snow,Light Snow,150,2013-03-14 14:15:00
9:23 AM,23.0,19.4,86,30.21,1.2,SSE,8.1,-,0.00,Snow,Light Snow,150,2013-03-14 14:23:00
9:42 AM,23.0,19.4,86,30.21,0.5,SE,5.8,-,0.01,Fog-Snow,Snow,140,2013-03-14 14:42:00
9:51 AM,23.0,21.2,93,30.21,0.5,SE,4.6,-,0.02,Fog-Snow,Snow,140,2013-03-14 14:51:00
9:53 AM,23.0,21.0,92,30.26,0.5,SE,4.6,-,0.02,Fog-Snow,Snow,140,2013-03-14 14:53:00
10:10 AM,24.8,21.2,86,30.20,1.0,SSE,5.8,-,0.01,Snow,Light Snow,150,2013-03-14 15:10:00
10:19 AM,24.8,21.2,86,30.20,0.8,SSE,5.8,-,0.01,Snow,Light Snow,150,2013-03-14 15:19:00
10:28 AM,24.8,21.2,86,30.19,1.0,SSE,5.8,-,0.01,Snow,Light Snow,150,2013-03-14 15:28:00
10:42 AM,24.8,21.2,86,30.19,1.2,SE,4.6,-,0.02,Snow,Light Snow,140,2013-03-14 15:42:00
10:53 AM,25.0,21.9,88,30.24,1.5,ESE,6.9,-,0.02,Snow,Light Snow,110,2013-03-14 15:53:00
11:00 AM,24.8,21.2,86,30.19,2.0,East,4.6,-,0.00,Snow,Light Snow,100,2013-03-14 16:00:00
11:18 AM,26.6,21.2,80,30.18,4.0,ESE,8.1,-,0.00,Snow,Light Snow,110,2013-03-14 16:18:00
11:53 AM,27.0,21.9,81,30.23,10.0,SE,9.2,-,0.00,,Overcast,130,2013-03-14 16:53:00
12:53 PM,28.9,24.1,82,30.21,10.0,South,6.9,-,N/A,,Overcast,180,2013-03-14 17:53:00
1:12 PM,30.2,24.8,80,30.16,10.0,South,6.9,-,N/A,,Overcast,180,2013-03-14 18:12:00
1:53 PM,30.9,25.0,79,30.18,10.0,South,6.9,-,N/A,,Overcast,190,2013-03-14 18:53:00
2:53 PM,33.1,26.1,75,30.19,10.0,South,6.9,-,N/A,,Scattered Clouds,180,2013-03-14 19:53:00
3:53 PM,35.1,25.0,67,30.17,10.0,SSE,5.8,-,N/A,,Clear,160,2013-03-14 20:53:00
4:53 PM,36.0,25.0,64,30.16,10.0,South,6.9,-,N/A,,Clear,190,2013-03-14 21:53:00
5:53 PM,36.0,25.0,64,30.17,10.0,South,5.8,-,N/A,,Clear,170,2013-03-14 22:53:00
6:53 PM,33.1,25.0,72,30.15,10.0,SSW,6.9,-,N/A,,Clear,210,2013-03-14 23:53:00
7:53 PM,33.1,25.0,72,30.12,10.0,Calm,Calm,-,N/A,,Clear,0,2013-03-15 00:53:00
8:53 PM,28.9,24.1,82,30.12,10.0,Calm,Calm,-,N/A,,Clear,0,2013-03-15 01:53:00
9:53 PM,27.0,23.0,85,30.13,8.0,Calm,Calm,-,N/A,,Clear,0,2013-03-15 02:53:00
10:53 PM,28.0,24.1,85,30.10,8.0,Calm,Calm,-,N/A,,Clear,0,2013-03-15 03:53:00
11:53 PM,28.9,25.0,85,30.06,8.0,South,6.9,-,N/A,,Clear,170,2013-03-15 04:53:00